Location: Arroyo de Fuente Vieja
(40.4902°N, 4.1175°W)
Time: 06:09:00
(UTC+00:00)

Terra - Visible Passes

Search period start: 13 July 2024 00:00
Search period end: 23 July 2024 00:00
Orbit: 693 x 694 km, 98.0° (Epoch: 12 July)

Date Brightness Start Highest point End Pass type
(mag) Time Alt. Az. Time Alt. Az. Time Alt. Az.
13 Jul 2.0 21:10:20 20° SE 21:13:26 55° ENE 21:18:03 10° N visible
13 Jul 4.2 22:49:02 11° WSW 22:51:21 15° W 22:54:00 10° WNW visible
14 Jul 3.7 20:13:34 10° E 20:16:20 16° ENE 20:19:06 10° NNE visible
14 Jul 2.2 21:50:50 25° S 21:53:25 57° W 21:58:05 10° NNW visible
15 Jul 2.6 20:52:39 16° SE 20:55:58 37° ENE 21:00:18 10° N visible
15 Jul 3.7 22:31:21 16° SW 22:33:38 22° W 22:37:19 10° NW visible
16 Jul 1.8 21:33:09 26° SSE 21:35:51 87° WSW 21:40:36 10° NNW visible
17 Jul 3.1 20:34:58 11° ESE 20:38:33 25° ENE 20:42:24 10° NNE visible
17 Jul 3.1 22:13:40 21° SW 22:15:58 33° W 22:20:14 10° NNW visible
18 Jul 1.9 21:15:28 23° SSE 21:18:20 62° ENE 21:23:00 10° N visible
18 Jul 4.3 22:54:11 10° WSW 22:56:18 13° W 22:58:28 10° WNW visible
19 Jul 3.5 20:18:06 10° ESE 20:21:10 18° ENE 20:24:15 10° NNE visible
19 Jul 2.4 21:55:59 26° SSW 21:58:20 50° W 22:02:56 10° NNW visible
20 Jul 2.4 20:57:48 18° SE 21:00:50 41° ENE 21:05:16 10° N visible
20 Jul 3.8 22:36:30 15° SW 22:38:34 20° W 22:42:00 10° NW visible
21 Jul 1.8 21:38:19 29° S 21:40:44 77° WSW 21:45:28 10° NNW visible
22 Jul 2.9 20:40:07 14° ESE 20:43:23 28° ENE 20:47:24 10° N visible
22 Jul 3.3 22:18:49 21° SW 22:20:52 29° W 22:25:00 10° NW visible
